{"data":{"norad_id":44634,"epoch":"2026-05-24T18:55:05.893824Z","epoch_age_seconds":92576,"freshness":"FRESH","line1":"1 44634U 19069A   26144.78826266 -.00000264  00000+0 -77659-3 0  9998","line2":"2 44634  87.8852 284.4212 0010805 124.1212 236.0943 13.11904340316048","mean_motion":13.1190434,"eccentricity":0.0010805,"inclination_deg":87.8852,"raan_deg":284.4212,"arg_perigee_deg":124.1212,"mean_anomaly_deg":236.0943,"bstar":-0.00077659,"rev_number":31604,"period_min":109.76410063557,"perigee_km":1207.5960132308,"apogee_km":1224.0065138183,"semimajor_km":7593.9382635246,"source":"CELESTRAK","updated_at":"2026-05-25T13:37:56.004327Z"}}